Weather History for GEML - October, 2013

Change the Weather History Date:

Tuesday, October 29, 2013

  Actual Average Record
Temperature  
Mean Temperature 73 °F -  
Max Temperature 78 °F 69 °F 82 °F (2005)
Min Temperature 68 °F 57 °F 57 °F (1996)
Cooling Degree Days 8    
Growing Degree Days 23 (Base 50)    
Moisture  
Dew Point 54 °F    
Average Humidity 50    
Maximum Humidity 61    
Minimum Humidity 34    
Precipitation  
Precipitation 0.00 in 0.05 in - ()
Sea Level Pressure  
Sea Level Pressure 30.01 in    
Wind  
Wind Speed 13 mph ()    
Max Wind Speed 18 mph    
Max Gust Speed 32 mph    
Visibility 6.2 miles    
Events      
Averages and records for this station are not official NWS values.
T = Trace of Precipitation, MM = Missing Value Source: Averaged Metar Reports

Daily Weather History Graph

Daily Weather History Graph

Search for Another Location

Airport or City:

Trip Planner

Search our weather history database for the weather conditions in past years. The results will help you decide how hot, cold, wet, or windy it might be!

Date:

Astronomy

Oct. 29, 2013 Rise Set
Actual Time 7:30 AM CET 6:20 PM CET
Civil Twilight 7:04 AM CET 6:46 PM CET
Nautical Twilight 6:34 AM CET 7:16 PM CET
Astronomical Twilight 6:04 AM CET 7:45 PM CET
Moon 2:17 AM CET (10/29) 3:16 PM CET (10/29)
Length of Visible Light 11h 41m
Length of Day
10h 49m
Waning Crescent, 27% of the Moon is Illuminated
Oct 29
Waning Crescent
Nov 3
New
Nov 10
First Quarter
Nov 17
Full
Nov 25
Last Quarter

Hourly Weather History & Observations

Time (CET) Temp. Dew Point Humidity Pressure Visibility Wind Dir Wind Speed Gust Speed Precip Events Conditions
6:00 AM 73.4 °F 57.2 °F 57% 30.01 in 6.2 mi WSW 11.5 mph 23.0 mph N/A   Partly Cloudy
6:30 AM 73.4 °F 55.4 °F 53% 29.98 in 6.2 mi WSW 13.8 mph 25.3 mph N/A   Partly Cloudy
7:00 AM 73.4 °F 53.6 °F 50% 30.01 in 6.2 mi WSW 13.8 mph 25.3 mph N/A   Partly Cloudy
7:30 AM 73.4 °F 50.0 °F 44% 30.01 in 6.2 mi WSW 12.7 mph 24.2 mph N/A   Partly Cloudy
8:00 AM 75.2 °F 46.4 °F 36% 30.01 in 6.2 mi WSW 12.7 mph 24.2 mph N/A   Partly Cloudy
8:30 AM 75.2 °F 44.6 °F 34% 30.01 in 6.2 mi West 16.1 mph - N/A   Partly Cloudy
9:00 AM 73.4 °F 50.0 °F 44% 30.04 in 6.2 mi WSW 13.8 mph 25.3 mph N/A   Partly Cloudy
9:30 AM 73.4 °F 50.0 °F 44% 30.04 in 6.2 mi West 13.8 mph - N/A   Partly Cloudy
10:00 AM 75.2 °F 51.8 °F 44% 30.04 in - West 13.8 mph - N/A   Clear
10:30 AM 75.2 °F 53.6 °F 47% 30.04 in - West 12.7 mph - N/A   Clear
11:00 AM 75.2 °F 53.6 °F 47% 30.04 in - West 13.8 mph - N/A   Clear
11:30 AM 77.0 °F 51.8 °F 41% 30.04 in - West 13.8 mph 25.3 mph N/A   Clear
12:30 PM 78.8 °F 48.2 °F 34% 30.01 in 6.2 mi West 15.0 mph 27.6 mph N/A   Partly Cloudy
1:00 PM 78 °F 57 °F 38% 30.00 in 25 mi West 13.8 mph - -   Scattered Clouds
1:00 PM 77.0 °F 51.8 °F 41% 30.01 in 6.2 mi West 13.8 mph 25.3 mph N/A   Partly Cloudy
1:30 PM 73.4 °F 59.0 °F 61% 30.01 in 6.2 mi WNW 16.1 mph - N/A   Partly Cloudy
2:00 PM 73.4 °F 59.0 °F 61% 29.98 in 6.2 mi West 17.3 mph - N/A   Partly Cloudy
2:30 PM 73.4 °F 59.0 °F 61% 30.01 in 6.2 mi West 16.1 mph 28.8 mph N/A   Partly Cloudy
3:00 PM 73.4 °F 57.2 °F 57% 29.98 in 6.2 mi West 18.4 mph - N/A   Partly Cloudy
3:30 PM 73.4 °F 59.0 °F 61% 30.01 in 6.2 mi West 15.0 mph 28.8 mph N/A   Partly Cloudy
4:00 PM 73.4 °F 57.2 °F 57% 29.98 in - West 17.3 mph - N/A   Clear
4:30 PM 71.6 °F 57.2 °F 60% 29.98 in - West 17.3 mph - N/A   Clear
5:00 PM 71.6 °F 55.4 °F 57% 29.98 in - West 17.3 mph 28.8 mph N/A   Clear
5:30 PM 71.6 °F 55.4 °F 57% 29.98 in - West 12.7 mph 24.2 mph N/A   Clear
6:00 PM 69.8 °F 53.6 °F 56% 30.01 in 6.2 mi West 11.5 mph 23.0 mph N/A   Partly Cloudy
6:30 PM 69.8 °F 51.8 °F 53% 30.01 in 6.2 mi West 12.7 mph 24.2 mph N/A   Partly Cloudy
7:00 PM 68 °F 55 °F 54% 30.00 in 25 mi West 15.0 mph - -   Partly Cloudy
7:00 PM 69.8 °F 50.0 °F 49% 30.01 in 6.2 mi West 15.0 mph 26.5 mph N/A   Partly Cloudy
7:30 PM 68.0 °F 51.8 °F 56% 30.01 in 6.2 mi West 17.3 mph 32.2 mph N/A   Partly Cloudy